INTELSAT 18 (IS-18) (37834 NORAD) Tracking and Keplerian Element Data

This shows tracking and keplerian element data for the satellite.

Feedback or suggestion? Click here.




ElementValue
Catalog37834
NameINTELSAT 18 (IS-18)
Epoch Orbit2496
Epoch Day200.24194569
Epoch Year2018
RAAN83.4707
Inclination0.012
Eccentricity0.000196
Argument of Perigee29.5378
Mean Anonmoly91.0638
Mean Motion1.00273368
Decay Rate3.5E-07
L11 37834U 11056A 18200.24194569 .00000035 00000-0 00000-0 0 9997
L22 37834 0.0120 83.4707 0001960 29.5378 91.0638 1.00273368 24967

Live tracking and technical data element details for INTELSAT 18 (IS-18) (NORAD 37834). INTELSAT 18 (IS-18) can be tracked NOW for your location showing map with azimuth and elevation plus other details from your city location.

Track the satellite on the map from your city or location and see movement details for azimuth, elevation, latitude, longitude, range, height, and movement on the map or in text.







IsCatalogInMostPopularTable: catalog: 37834, numindb: 42
Update: records affected: 1



GetName: 37834 INTELSAT 18 (IS-18)

Hit Count: updated at: Sat, 21 Jul 2018 07:49:51 GMT